Regional Weather Roundup
Issued by NWS State College, PA

Home | Current Version | Previous Version | Text Only | Print | Product List | Glossary On
Versions: 1 2 3 4 5 6 7 8 9 10 11 12 13 14 15 16 17 18 19 20 21 22 23 24 25 26 27 28 29 30 31 32 33 34 35 36 37 38 39 40 41 42 43 44 45 46 47 48 49 50
678
ASUS41 KCTP 110603
RWRCTP

REGIONAL WEATHER ROUNDUP
NATIONAL WEATHER SERVICE STATE COLLEGE PA
100 AM EST THU FEB 11 2016

Note: "fair" indicates few or no clouds below 12,000 feet with no
significant weather and/or obstructions to visibility.

* = STATION THAT DOES NOT REPORT PRECIPITATION /E.G. RAIN...SNOW...ETC/
    THUNDER OR FOG.

PAZ002>004-007>009-013>016-020>023-029>032-110700-
WESTERN PENNSYLVANIA

CITY           SKY/WX    TMP DP  RH WIND       PRES   REMARKS
ERIE           CLOUDY    17   2  51 W21G28    29.90R WCI   0
MEADVILLE      CLOUDY    14   7  73 NW10      29.85R HAZE    WCI   1
FRANKLIN*      CLOUDY    14   9  79 W13       29.85S WCI   0
NEW CASTLE     FLURRIES  15   9  76 W14       29.92R WCI   0
BEAVER COUNTY  NOT AVBL
BUTLER*        CLOUDY    14   7  73 W12G18    29.93S WCI   0
PITTSBURGH INT FLURRIES  14   6  70 W12G21    29.92S WCI   0
PITTSBURGH     CLOUDY    15   8  73 W15G24    29.93R WCI   0
INDIANA*       CLOUDY    16  10  79 W18G24    29.89S HAZE    WCI  -1
LATROBE        FLURRIES  14   9  79 SW14G22   29.95R WCI  -1
WASHINGTON CO* CLOUDY    14   5  67 SW14G21   29.96S WCI  -1
$$

PAZ004>006-010>012-017>019-024>028-033>037-041-042-045-046-049>053-110700-
CENTRAL PENNSYLVANIA

CITY           SKY/WX    TMP DP  RH WIND       PRES   REMARKS
BRADFORD       LGT SNOW   9   4  80 W7        29.73S WCI  -2
DUBOIS         LGT SNOW  13   9  84 W14       29.78S VSB 3/4 WCI  -2
CLEARFIELD     LGT SNOW  15  10  80 W5        29.81S WCI   8
JOHNSTOWN      LGT SNOW  11   4  73 W17G25    29.78S WCI  -6
ALTOONA        CLOUDY    16   6  65 W18G26    29.85R WCI   0
STATE COLLEGE  LGT SNOW  16  12  84 W5        29.83S WCI   9
WILLIAMSPORT   MOCLDY    20   4  50 NW9       29.85R WCI   9
SELINSGROVE    MOCLDY    20   6  55 W3        29.88R
FT INDIANTOWN  FLURRIES  21  16  79 SW7       29.86S WCI  13
CAPITAL CITY   CLOUDY    22   8  55 W10       29.89R WCI  11
HARRISBURG     PTCLDY    23  11  60 W14       29.88R WCI  11
YORK           MOCLDY    20   8  60 W8G18     29.90R WCI  10
$$

PAZ038>040-043-044-047-048-054-055-060>062-067>071-110700-
EASTERN PENNSYLVANIA

CITY           SKY/WX    TMP DP  RH WIND       PRES   REMARKS
SCRANTON       CLOUDY    20   7  57 W9        29.78R WCI   9
MOUNT POCONO   LGT SNOW  16   9  74 NW16G29   29.67S WCI   1
ALLENTOWN      CLOUDY    24  13  62 W13       29.82R WCI  12
QUAKERTOWN*    NOT AVBL
READING        CLOUDY    23  11  60 W9        29.85R WCI  13
LANCASTER      CLEAR     19  10  68 W12       29.87R WCI   7
COATESVILLE    CLEAR     19  12  73 W15       29.85S WCI   5
POTTSTOWN      CLOUDY    23  12  62 W13       29.86R WCI  11
BLUE BELL        N/A     23  16  74 NW5       29.84R
DOYLESTOWN     CLOUDY    22  14  71 W14G20    29.81R WCI   9
WILLOW GROVE   NOT AVBL
NORTH PHILA    CLOUDY    26  14  60 NW21G31   29.85R WCI  12
PHILADELPHIA   CLOUDY    26  10  50 W15       29.87R WCI  14
$$




USA.gov is the U.S. government's official web portal to all federal, state and local government web resources and services.